Simultaneous Nadir Overpasses (SNOs) Predictions

Prediction of SNOs near US between AQUA and NPP Satellite Orbit:

Table of predicted SNOs near US for the next 10.0 days since TLE Epoch: 5/31/2014
Index Date (AQUA) Time (AQUA) AQUA Lat,Lon Date (NPP) Time (NPP) NPP Lat,Lon Distance(km) Time Diff (sec)
1 06/01/2014 06:56:43 20.01, -77.21 06/01/2014 06:50:49 19.92, -76.80 43.65 354
2 06/01/2014 08:31:48 33.74, -98.48 06/01/2014 08:28:23 33.73, -98.49 1.43 205
3 06/01/2014 10:07:05 46.65,-119.06 06/01/2014 10:06:09 46.74,-119.42 29.51 56
4 06/03/2014 21:04:20 49.94,-121.92 06/03/2014 20:56:01 51.65,-122.49 194.29 499
5 06/04/2014 07:19:19 49.91, -76.05 06/04/2014 07:26:35 50.33, -78.23 162.41 436
6 06/06/2014 18:17:28 49.96, -80.22 06/06/2014 18:16:54 49.68, -81.92 126.28 34
7 06/06/2014 19:54:24 43.00,-102.31 06/06/2014 19:56:21 42.58,-104.47 182.23 117
8 06/09/2014 07:46:10 20.03, -89.58 06/09/2014 07:41:42 20.00, -89.46 13.16 268
9 06/09/2014 09:18:46 42.67,-108.13 06/09/2014 09:16:43 42.70,-108.26 11.10 123




NCC Satellite Simultaneous Nadir Overpasses (SNOs) Prediction Service
